| time (UTC) | temp F | wind direction | speed MPH | gust MPH | rain 1hr in | rain 24hr in | rain mn in | humidity % | barometer mb |
| 20260510044539 | 74 | 5 | 0.0 | 2.0 | 0.00 | 0.00 | 0.00 | 62 | 1003.6 |
| 20260510043029 | 74 | 5 | 0.0 | 0.0 | 0.00 | 0.00 | 0.00 | 60 | 1003.6 |
| 20260510041528 | 75 | 5 | 0.0 | 0.0 | 0.00 | 0.00 | 0.00 | 57 | 1003.7 |
| 20260510040030 | 76 | 5 | 0.0 | 1.0 | 0.00 | 0.00 | 0.00 | 54 | 1003.6 |
| 20260510034534 | 77 | 5 | 0.0 | 2.0 | 0.00 | 0.00 | 0.00 | 52 | 1003.6 |
| 20260510033027 | 77 | 5 | 0.0 | 1.0 | 0.00 | 0.00 | 0.00 | 50 | 1003.6 |
| 20260510031531 | 77 | 5 | 0.0 | 1.0 | 0.00 | 0.00 | 0.00 | 49 | 1003.7 |
| 20260510030026 | 77 | 5 | 0.0 | 0.0 | 0.00 | 0.00 | 0.00 | 49 | 1003.7 |
| 20260510024524 | 77 | 5 | 0.0 | 0.0 | 0.00 | 0.00 | 0.00 | 48 | 1003.7 |
| 20260510023024 | 78 | 5 | 0.0 | 0.0 | 0.00 | 0.00 | 0.00 | 47 | 1003.6 |
| 20260510021533 | 79 | 5 | 0.0 | 0.0 | 0.00 | 0.00 | 0.00 | 45 | 1003.3 |
| 20260510020023 | 79 | 5 | 0.0 | 1.0 | 0.00 | 0.00 | 0.00 | 45 | 1003.1 |
| 20260510014522 | 79 | 5 | 0.0 | 0.0 | 0.00 | 0.00 | 0.00 | 45 | 1002.8 |
| 20260510013022 | 80 | 5 | 0.0 | 0.0 | 0.00 | 0.00 | 0.00 | 42 | 1002.7 |
| 20260510011522 | 82 | 5 | 0.0 | 0.0 | 0.00 | 0.00 | 0.00 | 40 | 1002.7 |
| 20260510010021 | 83 | 5 | 0.0 | 0.0 | 0.00 | 0.00 | 0.00 | 39 | 1002.7 |
| 20260510004520 | 84 | 5 | 0.0 | 0.0 | 0.00 | 0.00 | 0.00 | 38 | 1002.7 |
| 20260510003023 | 85 | 5 | 0.0 | 1.0 | 0.00 | 0.00 | 0.00 | 37 | 1002.8 |
| 20260510001520 | 85 | 5 | 0.0 | 0.0 | 0.00 | 0.00 | 0.00 | 36 | 1002.8 |
| 20260510000020 | 86 | 5 | 0.0 | 1.0 | 0.00 | 0.00 | 0.00 | 36 | 1002.7 |
| 20260509234521 | 86 | 5 | 0.0 | 1.0 | 0.00 | 0.00 | 0.00 | 35 | 1002.7 |
| 20260509233017 | 87 | 5 | 0.0 | 1.0 | 0.00 | 0.00 | 0.00 | 35 | 1002.9 |
| 20260509231516 | 87 | 5 | 0.0 | 0.0 | 0.00 | 0.00 | 0.00 | 33 | 1002.9 |
| 20260509230015 | 88 | 5 | 0.0 | 0.0 | 0.00 | 0.00 | 0.00 | 33 | 1003.1 |
| 20260509224514 | 89 | 5 | 0.0 | 0.0 | 0.00 | 0.00 | 0.00 | 32 | 1003.0 |
| 20260509223014 | 89 | 5 | 0.0 | 2.0 | 0.00 | 0.00 | 0.00 | 31 | 1003.0 |
| 20260509221519 | 90 | 5 | 0.0 | 0.0 | 0.00 | 0.00 | 0.00 | 33 | 1003.0 |
| 20260509220012 | 90 | 5 | 0.0 | 1.0 | 0.00 | 0.00 | 0.00 | 32 | 1003.0 |
| 20260509214511 | 91 | 5 | 0.0 | 0.0 | 0.00 | 0.00 | 0.00 | 32 | 1003.2 |
| 20260509213010 | 90 | 5 | 0.0 | 3.0 | 0.00 | 0.00 | 0.00 | 34 | 1003.3 |
| 20260509211512 | 91 | 5 | 0.0 | 0.0 | 0.00 | 0.00 | 0.00 | 32 | 1003.6 |
| 20260509210010 | 91 | 5 | 0.0 | 0.0 | 0.00 | 0.00 | 0.00 | 32 | 1003.9 |
| 20260509204506 | 91 | 5 | 0.0 | 2.0 | 0.00 | 0.00 | 0.00 | 34 | 1004.1 |
| 20260509203005 | 90 | 5 | 0.0 | 1.0 | 0.00 | 0.00 | 0.00 | 36 | 1004.3 |
| 20260509201501 | 90 | 5 | 0.0 | 2.0 | 0.00 | 0.00 | 0.00 | 33 | 1004.4 |
| 20260509200105 | 91 | 5 | 0.0 | 1.0 | 0.00 | 0.00 | 0.00 | 33 | 1004.6 |
| 20260509194558 | 91 | 5 | 0.0 | 0.0 | 0.00 | 0.00 | 0.00 | 36 | 1004.8 |
| 20260509193053 | 90 | 5 | 0.0 | 1.0 | 0.00 | 0.00 | 0.00 | 37 | 1005.1 |
| 20260509191554 | 89 | 5 | 0.0 | 8.0 | 0.00 | 0.00 | 0.00 | 38 | 1005.3 |
| 20260509190104 | 90 | 5 | 0.0 | 1.0 | 0.00 | 0.00 | 0.00 | 38 | 1005.4 |
| 20260509184548 | 89 | 5 | 0.0 | 1.0 | 0.00 | 0.00 | 0.00 | 40 | 1005.6 |
| 20260509183045 | 89 | 5 | 0.0 | 1.0 | 0.00 | 0.00 | 0.00 | 41 | 1005.7 |
| 20260509181546 | 89 | 5 | 0.0 | 0.0 | 0.00 | 0.00 | 0.00 | 40 | 1006.0 |
| 20260509180048 | 89 | 5 | 0.0 | 0.0 | 0.00 | 0.00 | 0.00 | 43 | 1006.1 |
| 20260509174542 | 88 | 5 | 0.0 | 0.0 | 0.00 | 0.00 | 0.00 | 44 | 1006.3 |
| 20260509173039 | 87 | 5 | 0.0 | 0.0 | 0.00 | 0.00 | 0.00 | 43 | 1006.5 |
| 20260509171539 | 86 | 5 | 0.0 | 1.0 | 0.00 | 0.00 | 0.00 | 47 | 1006.7 |
| 20260509170032 | 85 | 5 | 0.0 | 0.0 | 0.00 | 0.00 | 0.00 | 49 | 1006.9 |
| 20260509164527 | 84 | 5 | 0.0 | 0.0 | 0.00 | 0.00 | 0.00 | 52 | 1006.9 |
| 20260509163026 | 82 | 5 | 0.0 | 0.0 | 0.00 | 0.00 | 0.00 | 55 | 1007.0 |
| 20260509161520 | 81 | 5 | 0.0 | 1.0 | 0.00 | 0.00 | 0.00 | 57 | 1007.1 |
| 20260509160017 | 80 | 5 | 0.0 | 0.0 | 0.00 | 0.00 | 0.00 | 61 | 1007.0 |
| 20260509154518 | 79 | 5 | 0.0 | 0.0 | 0.00 | 0.00 | 0.00 | 62 | 1007.1 |
| 20260509153011 | 78 | 5 | 0.0 | 0.0 | 0.00 | 0.00 | 0.00 | 67 | 1007.1 |
| 20260509151509 | 77 | 5 | 0.0 | 0.0 | 0.00 | 0.00 | 0.00 | 68 | 1007.3 |
| 20260509150010 | 75 | 5 | 0.0 | 0.0 | 0.00 | 0.00 | 0.00 | 71 | 1007.4 |
| 20260509144500 | 74 | 5 | 0.0 | 0.0 | 0.00 | 0.00 | 0.00 | 75 | 1007.5 |
| 20260509143058 | 72 | 5 | 0.0 | 0.0 | 0.00 | 0.00 | 0.00 | 78 | 1007.8 |
| 20260509141553 | 71 | 5 | 0.0 | 0.0 | 0.00 | 0.00 | 0.00 | 81 | 1007.9 |
| 20260509140059 | 69 | 5 | 0.0 | 0.0 | 0.00 | 0.00 | 0.00 | 81 | 1007.9 |
| 20260509134620 | 67 | 5 | 0.0 | 0.0 | 0.00 | 0.00 | 0.00 | 61 | 1008.0 |
| 20260509133047 | 65 | 5 | 0.0 | 0.0 | 0.00 | 0.00 | 0.00 | 60 | 1007.9 |
| 20260509131644 | 64 | 5 | 0.0 | 0.0 | 0.00 | 0.00 | 0.00 | 62 | 1007.9 |
| 20260509130044 | 64 | 5 | 0.0 | 0.0 | 0.00 | 0.00 | 0.00 | 64 | 1007.6 |
| 20260509124543 | 64 | 5 | 0.0 | 0.0 | 0.00 | 0.00 | 0.00 | 65 | 1007.6 |
| 20260509123042 | 64 | 5 | 0.0 | 0.0 | 0.00 | 0.00 | 0.00 | 66 | 1007.6 |
| 20260509121540 | 64 | 5 | 0.0 | 0.0 | 0.00 | 0.00 | 0.00 | 67 | 1007.5 |
| 20260509120039 | 63 | 5 | 0.0 | 0.0 | 0.00 | 0.00 | 0.00 | 67 | 1007.4 |
| 20260509114543 | 63 | 5 | 0.0 | 0.0 | 0.00 | 0.00 | 0.00 | 71 | 1007.0 |
| 20260509113037 | 63 | 5 | 0.0 | 0.0 | 0.00 | 0.00 | 0.00 | 74 | 1006.8 |
| 20260509111536 | 63 | 5 | 0.0 | 0.0 | 0.00 | 0.00 | 0.00 | 76 | 1006.6 |
| 20260509110035 | 63 | 5 | 0.0 | 0.0 | 0.00 | 0.00 | 0.00 | 79 | 1006.6 |
| 20260509104535 | 63 | 5 | 0.0 | 0.0 | 0.00 | 0.00 | 0.00 | 79 | 1006.6 |
| 20260509103034 | 63 | 5 | 0.0 | 0.0 | 0.00 | 0.00 | 0.00 | 79 | 1006.6 |
| 20260509101546 | 63 | 5 | 0.0 | 0.0 | 0.00 | 0.00 | 0.00 | 81 | 1006.6 |
| 20260509100033 | 63 | 5 | 0.0 | 0.0 | 0.00 | 0.00 | 0.00 | 82 | 1006.8 |
| 20260509094531 | 63 | 5 | 0.0 | 0.0 | 0.00 | 0.00 | 0.00 | 83 | 1006.8 |
| 20260509093032 | 64 | 5 | 0.0 | 0.0 | 0.00 | 0.00 | 0.00 | 82 | 1006.9 |
| 20260509091526 | 65 | 5 | 0.0 | 0.0 | 0.00 | 0.00 | 0.00 | 82 | 1006.9 |
| 20260509090027 | 65 | 5 | 0.0 | 3.0 | 0.00 | 0.00 | 0.00 | 80 | 1006.7 |
| 20260509084526 | 66 | 5 | 0.0 | 12.0 | 0.00 | 0.00 | 0.00 | 73 | 1007.3 |
| 20260509083023 | 66 | 5 | 1.0 | 9.0 | 0.00 | 0.00 | 0.00 | 67 | 1007.4 |
| 20260509081528 | 67 | 5 | 0.0 | 11.0 | 0.00 | 0.00 | 0.00 | 65 | 1007.4 |
| 20260509080022 | 66 | 5 | 0.0 | 4.0 | 0.00 | 0.00 | 0.00 | 64 | 1007.8 |
| 20260509074522 | 66 | 5 | 0.0 | 0.0 | 0.00 | 0.00 | 0.00 | 65 | 1007.9 |
| 20260509073021 | 66 | 5 | 0.0 | 2.0 | 0.00 | 0.00 | 0.00 | 66 | 1008.2 |
| 20260509071519 | 65 | 5 | 0.0 | 3.0 | 0.00 | 0.00 | 0.00 | 69 | 1008.2 |
| 20260509070016 | 65 | 5 | 0.0 | 0.0 | 0.00 | 0.00 | 0.00 | 75 | 1006.9 |
| 20260509064514 | 65 | 5 | 0.0 | 0.0 | 0.00 | 0.00 | 0.00 | 75 | 1006.7 |
| 20260509063012 | 66 | 5 | 0.0 | 0.0 | 0.00 | 0.00 | 0.00 | 77 | 1006.6 |
| 20260509061510 | 66 | 5 | 0.0 | 0.0 | 0.00 | 0.00 | 0.00 | 77 | 1006.8 |
| 20260509060008 | 66 | 5 | 0.0 | 0.0 | 0.00 | 0.00 | 0.00 | 77 | 1006.5 |
| 20260509054506 | 67 | 5 | 0.0 | 0.0 | 0.00 | 0.00 | 0.00 | 80 | 1006.4 |
| 20260509053003 | 67 | 5 | 0.0 | 0.0 | 0.00 | 0.00 | 0.00 | 81 | 1005.4 |
| 20260509051600 | 68 | 5 | 0.0 | 0.0 | 0.00 | 0.00 | 0.00 | 81 | 1005.5 |
| 20260509050107 | 68 | 5 | 0.0 | 0.0 | 0.00 | 0.00 | 0.00 | 82 | 1005.6 |